Voltar ao catálogo

STARLINK-36047

AtivoComunicaçõesVLEO
NORAD 66795·PAYLOAD·🇺🇸 United States

Lançado Dec 1, 2025 de Cape Canaveral Space Force Station

Loading…

Próximas Passagens (próximas 24 horas)

TLE

AtualizadoSource: CelesTrak SupGP

Época: Sep 15, 2026, 04:18 UTC

1 66795C 25278E   26258.17965278  .00033496  00000+0  12134-2 0  2580
2 66795  43.0023 124.3442 0001443 277.2445 235.4398 15.27558210    11

Acompanhe STARLINK-36047 em tempo real com AllMySat

Download on the App Store